| time (UTC) | temp C | wind direction | speed KPH | gust KPH | rain 1hr cm | rain 24hr cm | rain mn cm | humidity % | barometer mb |
| 20260503230404 | 23 | 339 | 1.6 | 4.8 | 0.00 | 0.00 | 0.00 | 46 | 1011.4 |
| 20260503225902 | 23 | 337 | 6.4 | 6.4 | 0.00 | 0.00 | 0.00 | 43 | 1011.4 |
| 20260503225357 | 23 | 357 | 3.2 | 4.8 | 0.00 | 0.00 | 0.00 | 46 | 1011.5 |
| 20260503224854 | 23 | 356 | 3.2 | 6.4 | 0.00 | 0.00 | 0.00 | 41 | 1011.5 |
| 20260503224351 | 23 | 13 | 3.2 | 4.8 | 0.00 | 0.00 | 0.00 | 52 | 1011.6 |
| 20260503223849 | 23 | 10 | 4.8 | 4.8 | 0.00 | 0.00 | 0.00 | 45 | 1011.8 |
| 20260503223346 | 23 | 11 | 3.2 | 4.8 | 0.00 | 0.00 | 0.00 | 46 | 1011.7 |
| 20260503222841 | 23 | 355 | 6.4 | 6.4 | 0.00 | 0.00 | 0.00 | 46 | 1011.8 |
| 20260503222340 | 23 | 334 | 6.4 | 6.4 | 0.00 | 0.00 | 0.00 | 43 | 1011.9 |
| 20260503221838 | 23 | 333 | 1.6 | 4.8 | 0.00 | 0.00 | 0.00 | 42 | 1012.1 |
| 20260503221337 | 22 | 322 | 1.6 | 4.8 | 0.00 | 0.00 | 0.00 | 51 | 1012.1 |
| 20260503220832 | 22 | 11 | 3.2 | 6.4 | 0.00 | 0.00 | 0.00 | 52 | 1012.1 |
| 20260503220329 | 22 | 347 | 3.2 | 9.7 | 0.00 | 0.00 | 0.00 | 53 | 1012.3 |
| 20260503215826 | 22 | 316 | 3.2 | 9.7 | 0.00 | 0.00 | 0.00 | 46 | 1012.3 |
| 20260503215323 | 22 | 317 | 6.4 | 9.7 | 0.00 | 0.00 | 0.00 | 50 | 1012.4 |
| 20260503214821 | 21 | 352 | 3.2 | 9.7 | 0.00 | 0.00 | 0.00 | 54 | 1012.5 |
| 20260503214318 | 21 | 350 | 4.8 | 6.4 | 0.00 | 0.00 | 0.00 | 54 | 1012.6 |
| 20260503213815 | 21 | 13 | 6.4 | 12.9 | 0.00 | 0.00 | 0.00 | 50 | 1012.6 |
| 20260503213313 | 21 | 9 | 9.7 | 14.5 | 0.00 | 0.00 | 0.00 | 52 | 1012.8 |
| 20260503212810 | 21 | 3 | 4.8 | 12.9 | 0.00 | 0.00 | 0.00 | 53 | 1012.6 |
| 20260503212308 | 21 | 9 | 11.3 | 12.9 | 0.00 | 0.00 | 0.00 | 52 | 1012.7 |
| 20260503211805 | 21 | 3 | 9.7 | 12.9 | 0.00 | 0.00 | 0.00 | 53 | 1012.8 |
| 20260503211301 | 21 | 13 | 4.8 | 11.3 | 0.00 | 0.00 | 0.00 | 54 | 1012.8 |
| 20260503210801 | 21 | 338 | 4.8 | 12.9 | 0.00 | 0.00 | 0.00 | 60 | 1012.9 |
| 20260503210259 | 21 | 1 | 9.7 | 12.9 | 0.00 | 0.00 | 0.00 | 54 | 1012.8 |
| 20260503205754 | 21 | 354 | 8.0 | 11.3 | 0.00 | 0.00 | 0.00 | 56 | 1012.9 |
| 20260503205251 | 20 | 27 | 8.0 | 14.5 | 0.00 | 0.00 | 0.00 | 53 | 1012.8 |
| 20260503204747 | 21 | 339 | 9.7 | 14.5 | 0.00 | 0.00 | 0.00 | 54 | 1012.9 |
| 20260503204245 | 21 | 2 | 14.5 | 16.1 | 0.00 | 0.00 | 0.00 | 51 | 1013.0 |
| 20260503203742 | 21 | 341 | 6.4 | 14.5 | 0.00 | 0.00 | 0.00 | 56 | 1012.8 |
| 20260503203239 | 21 | 2 | 6.4 | 12.9 | 0.00 | 0.00 | 0.00 | 54 | 1012.9 |
| 20260503202736 | 21 | 9 | 11.3 | 14.5 | 0.00 | 0.00 | 0.00 | 50 | 1012.9 |
| 20260503202234 | 21 | 0 | 12.9 | 14.5 | 0.00 | 0.00 | 0.00 | 48 | 1013.0 |
| 20260503201732 | 21 | 336 | 11.3 | 14.5 | 0.00 | 0.00 | 0.00 | 45 | 1012.9 |
| 20260503201229 | 22 | 350 | 9.7 | 11.3 | 0.00 | 0.00 | 0.00 | 47 | 1012.8 |
| 20260503200726 | 22 | 6 | 4.8 | 9.7 | 0.00 | 0.00 | 0.00 | 56 | 1013.2 |
| 20260503200222 | 22 | 359 | 4.8 | 6.4 | 0.00 | 0.00 | 0.00 | 58 | 1013.0 |
| 20260503195719 | 21 | 343 | 3.2 | 6.4 | 0.00 | 0.00 | 0.00 | 57 | 1013.0 |
| 20260503195216 | 21 | 350 | 6.4 | 6.4 | 0.00 | 0.00 | 0.00 | 54 | 1013.1 |
| 20260503194713 | 21 | 20 | 6.4 | 6.4 | 0.00 | 0.00 | 0.00 | 52 | 1013.3 |
| 20260503194209 | 21 | 340 | 6.4 | 9.7 | 0.00 | 0.00 | 0.00 | 53 | 1013.3 |
| 20260503193705 | 21 | 353 | 3.2 | 6.4 | 0.00 | 0.00 | 0.00 | 56 | 1013.5 |
| 20260503193201 | 21 | 335 | 6.4 | 11.3 | 0.00 | 0.00 | 0.00 | 52 | 1013.5 |
| 20260503192657 | 21 | 346 | 8.0 | 11.3 | 0.00 | 0.00 | 0.00 | 52 | 1013.6 |
| 20260503192152 | 21 | 345 | 8.0 | 11.3 | 0.00 | 0.00 | 0.00 | 54 | 1013.6 |
| 20260503191649 | 21 | 350 | 4.8 | 11.3 | 0.00 | 0.00 | 0.00 | 49 | 1013.5 |
| 20260503191147 | 21 | 4 | 6.4 | 9.7 | 0.00 | 0.00 | 0.00 | 50 | 1013.8 |
| 20260503190643 | 21 | 356 | 4.8 | 6.4 | 0.00 | 0.00 | 0.00 | 54 | 1013.8 |
| 20260503190140 | 21 | 16 | 6.4 | 11.3 | 0.00 | 0.00 | 0.00 | 51 | 1013.8 |
| 20260503185637 | 21 | 26 | 3.2 | 6.4 | 0.00 | 0.00 | 0.00 | 56 | 1013.9 |
| 20260503185132 | 21 | 6 | 3.2 | 6.4 | 0.00 | 0.00 | 0.00 | 52 | 1013.8 |
| 20260503184627 | 21 | 19 | 6.4 | 6.4 | 0.00 | 0.00 | 0.00 | 50 | 1013.8 |
| 20260503184124 | 21 | 318 | 3.2 | 4.8 | 0.00 | 0.00 | 0.00 | 53 | 1014.0 |
| 20260503183620 | 20 | 341 | 4.8 | 9.7 | 0.00 | 0.00 | 0.00 | 53 | 1014.2 |
| 20260503183118 | 20 | 345 | 1.6 | 9.7 | 0.00 | 0.00 | 0.00 | 52 | 1014.1 |
| 20260503182616 | 21 | 281 | 3.2 | 4.8 | 0.00 | 0.00 | 0.00 | 48 | 1014.0 |
| 20260503182114 | 20 | 331 | 3.2 | 6.4 | 0.00 | 0.00 | 0.00 | 52 | 1014.3 |
| 20260503181611 | 20 | 12 | 4.8 | 9.7 | 0.00 | 0.00 | 0.00 | 54 | 1014.2 |
| 20260503181107 | 20 | 14 | 3.2 | 4.8 | 0.00 | 0.00 | 0.00 | 52 | 1014.4 |
| 20260503180605 | 21 | 310 | 3.2 | 3.2 | 0.00 | 0.00 | 0.00 | 49 | 1014.4 |
| 20260503175559 | 20 | 314 | 1.6 | 4.8 | 0.00 | 0.00 | 0.00 | 49 | 1014.4 |
| 20260503175056 | 20 | 2 | 6.4 | 9.7 | 0.00 | 0.00 | 0.00 | 51 | 1014.5 |
| 20260503174553 | 20 | 21 | 1.6 | 4.8 | 0.00 | 0.00 | 0.00 | 55 | 1014.4 |
| 20260503174049 | 20 | 17 | 0.0 | 4.8 | 0.00 | 0.00 | 0.00 | 56 | 1014.7 |
| 20260503173544 | 21 | 348 | 1.6 | 4.8 | 0.00 | 0.00 | 0.00 | 53 | 1014.4 |
| 20260503173041 | 20 | 347 | 0.0 | 0.0 | 0.00 | 0.00 | 0.00 | 56 | 1014.9 |
| 20260503172539 | 20 | 350 | 3.2 | 4.8 | 0.00 | 0.00 | 0.00 | 51 | 1014.6 |
| 20260503172036 | 20 | 60 | 3.2 | 6.4 | 0.00 | 0.00 | 0.00 | 51 | 1014.6 |
| 20260503171532 | 20 | 331 | 4.8 | 4.8 | 0.00 | 0.00 | 0.00 | 51 | 1014.6 |
| 20260503171030 | 20 | 346 | 3.2 | 6.4 | 0.00 | 0.00 | 0.00 | 52 | 1014.9 |
| 20260503170526 | 20 | 30 | 0.0 | 1.6 | 0.00 | 0.00 | 0.00 | 52 | 1014.7 |
| 20260503150918 | 20 | 220 | 0.0 | 3.2 | 0.00 | 0.00 | 0.00 | 54 | 1015.2 |
| 20260503150415 | 20 | 221 | 0.0 | 3.2 | 0.00 | 0.00 | 0.00 | 56 | 1015.3 |
| 20260503131308 | 10 | 209 | 3.2 | 4.8 | 0.00 | 0.00 | 0.00 | 82 | 1014.8 |
| 20260503130806 | 10 | 209 | 3.2 | 4.8 | 0.00 | 0.00 | 0.00 | 82 | 1014.7 |
| 20260503130303 | 10 | 209 | 3.2 | 4.8 | 0.00 | 0.00 | 0.00 | 82 | 1014.5 |
| 20260503110656 | 11 | 187 | 0.0 | 1.6 | 0.00 | 0.00 | 0.00 | 79 | 1014.5 |
| 20260503110154 | 11 | 187 | 1.6 | 3.2 | 0.00 | 0.00 | 0.00 | 78 | 1014.5 |
| 20260503100120 | 15 | 230 | 3.2 | 4.8 | 0.00 | 0.00 | 0.00 | 62 | 1014.2 |
| 20260503081510 | 15 | 219 | 3.2 | 4.8 | 0.00 | 0.00 | 0.00 | 61 | 1014.3 |
| 20260503081007 | 16 | 232 | 3.2 | 6.4 | 0.00 | 0.00 | 0.00 | 60 | 1014.5 |
| 20260503080503 | 16 | 244 | 4.8 | 6.4 | 0.00 | 0.00 | 0.00 | 60 | 1014.4 |
| 20260503072939 | 15 | 231 | 3.2 | 4.8 | 0.00 | 0.00 | 0.00 | 60 | 1014.1 |
| 20260503072437 | 15 | 239 | 0.0 | 1.6 | 0.00 | 0.00 | 0.00 | 63 | 1014.2 |
| 20260503071934 | 15 | 239 | 1.6 | 3.2 | 0.00 | 0.00 | 0.00 | 63 | 1014.1 |
| 20260503071431 | 16 | 238 | 1.6 | 3.2 | 0.00 | 0.00 | 0.00 | 61 | 1014.2 |
| 20260503070926 | 15 | 233 | 0.0 | 3.2 | 0.00 | 0.00 | 0.00 | 62 | 1014.3 |
| 20260503070424 | 16 | 247 | 0.0 | 0.0 | 0.00 | 0.00 | 0.00 | 63 | 1014.3 |
| 20260503054837 | 16 | 241 | 1.6 | 3.2 | 0.00 | 0.00 | 0.00 | 61 | 1014.2 |
| 20260503054333 | 16 | 222 | 1.6 | 3.2 | 0.00 | 0.00 | 0.00 | 61 | 1014.2 |
| 20260503053831 | 16 | 225 | 1.6 | 3.2 | 0.00 | 0.00 | 0.00 | 62 | 1014.3 |
| 20260503053329 | 16 | 228 | 1.6 | 4.8 | 0.00 | 0.00 | 0.00 | 62 | 1014.3 |
| 20260503052825 | 17 | 216 | 3.2 | 6.4 | 0.00 | 0.00 | 0.00 | 61 | 1014.2 |
| 20260503052322 | 16 | 218 | 1.6 | 3.2 | 0.00 | 0.00 | 0.00 | 62 | 1014.3 |
| 20260503051819 | 16 | 215 | 1.6 | 3.2 | 0.00 | 0.00 | 0.00 | 63 | 1014.4 |
| 20260503051315 | 16 | 239 | 3.2 | 3.2 | 0.00 | 0.00 | 0.00 | 65 | 1014.4 |
| 20260503050812 | 17 | 211 | 1.6 | 3.2 | 0.00 | 0.00 | 0.00 | 63 | 1014.3 |
| 20260503050308 | 17 | 228 | 1.6 | 4.8 | 0.00 | 0.00 | 0.00 | 62 | 1014.2 |
| 20260503045806 | 17 | 227 | 1.6 | 4.8 | 0.00 | 0.00 | 0.00 | 63 | 1014.2 |
| 20260503045305 | 17 | 204 | 3.2 | 4.8 | 0.00 | 0.00 | 0.00 | 62 | 1014.4 |
| 20260503044800 | 17 | 217 | 1.6 | 4.8 | 0.00 | 0.00 | 0.00 | 63 | 1014.4 |
| 20260503044257 | 16 | 214 | 1.6 | 3.2 | 0.00 | 0.00 | 0.00 | 63 | 1014.1 |
| 20260503043754 | 16 | 211 | 0.0 | 1.6 | 0.00 | 0.00 | 0.00 | 65 | 1014.1 |
| 20260503043251 | 17 | 239 | 1.6 | 1.6 | 0.00 | 0.00 | 0.00 | 65 | 1014.0 |
| 20260503042746 | 17 | 239 | 3.2 | 3.2 | 0.00 | 0.00 | 0.00 | 63 | 1014.1 |
| 20260503042244 | 17 | 219 | 3.2 | 4.8 | 0.00 | 0.00 | 0.00 | 61 | 1014.0 |
| 20260503041739 | 17 | 218 | 3.2 | 4.8 | 0.00 | 0.00 | 0.00 | 61 | 1014.1 |
| 20260503041238 | 17 | 238 | 3.2 | 4.8 | 0.00 | 0.00 | 0.00 | 60 | 1013.8 |
| 20260503040735 | 17 | 223 | 3.2 | 6.4 | 0.00 | 0.00 | 0.00 | 59 | 1014.0 |
| 20260503040232 | 18 | 182 | 3.2 | 4.8 | 0.00 | 0.00 | 0.00 | 59 | 1013.8 |
| 20260503035729 | 17 | 213 | 3.2 | 3.2 | 0.00 | 0.00 | 0.00 | 60 | 1013.9 |
| 20260503035227 | 17 | 251 | 0.0 | 1.6 | 0.00 | 0.00 | 0.00 | 63 | 1013.6 |
| 20260503034724 | 17 | 248 | 3.2 | 4.8 | 0.00 | 0.00 | 0.00 | 60 | 1013.4 |
| 20260503034220 | 16 | 231 | 3.2 | 4.8 | 0.00 | 0.00 | 0.00 | 62 | 1013.5 |
| 20260503033718 | 16 | 281 | 3.2 | 3.2 | 0.00 | 0.00 | 0.00 | 68 | 1013.4 |
| 20260503033215 | 16 | 281 | 3.2 | 4.8 | 0.00 | 0.00 | 0.00 | 68 | 1013.4 |
| 20260503032714 | 16 | 284 | 3.2 | 3.2 | 0.00 | 0.00 | 0.00 | 66 | 1013.4 |
| 20260503032212 | 17 | 284 | 3.2 | 3.2 | 0.00 | 0.00 | 0.00 | 64 | 1013.5 |
| 20260503031708 | 17 | 284 | 1.6 | 3.2 | 0.00 | 0.00 | 0.00 | 63 | 1013.3 |
| 20260503031208 | 18 | 284 | 1.6 | 3.2 | 0.00 | 0.00 | 0.00 | 61 | 1013.3 |
| 20260503030702 | 18 | 290 | 1.6 | 3.2 | 0.00 | 0.00 | 0.00 | 59 | 1013.3 |
| 20260503030159 | 23 | 225 | 3.2 | 3.2 | 0.00 | 0.00 | 0.00 | 40 | 1013.4 |
| 20260503025656 | 23 | 225 | 3.2 | 3.2 | 0.00 | 0.00 | 0.00 | 40 | 1013.3 |
| 20260503025154 | 23 | 225 | 3.2 | 3.2 | 0.00 | 0.00 | 0.00 | 40 | 1013.3 |
| 20260503024650 | 23 | 225 | 3.2 | 3.2 | 0.00 | 0.00 | 0.00 | 40 | 1013.2 |
| 20260503024148 | 23 | 225 | 3.2 | 3.2 | 0.00 | 0.00 | 0.00 | 40 | 1013.5 |
| 20260503023644 | 23 | 225 | 3.2 | 3.2 | 0.00 | 0.00 | 0.00 | 40 | 1013.4 |
| 20260503023141 | 23 | 225 | 3.2 | 3.2 | 0.00 | 0.00 | 0.00 | 40 | 1013.4 |
| 20260503022637 | 23 | 225 | 3.2 | 3.2 | 0.00 | 0.00 | 0.00 | 40 | 1013.4 |
| 20260503022137 | 23 | 225 | 3.2 | 3.2 | 0.00 | 0.00 | 0.00 | 40 | 1013.5 |
| 20260503021634 | 23 | 225 | 3.2 | 3.2 | 0.00 | 0.00 | 0.00 | 40 | 1013.4 |
| 20260503021131 | 23 | 225 | 3.2 | 3.2 | 0.00 | 0.00 | 0.00 | 40 | 1013.5 |
| 20260503020628 | 23 | 225 | 3.2 | 3.2 | 0.00 | 0.00 | 0.00 | 40 | 1013.5 |
| 20260503020125 | 23 | 293 | 0.0 | 1.6 | 0.00 | 0.00 | 0.00 | 40 | 1013.4 |
| 20260503015622 | 23 | 293 | 0.0 | 1.6 | 0.00 | 0.00 | 0.00 | 35 | 1013.4 |
| 20260503015119 | 23 | 293 | 1.6 | 1.6 | 0.00 | 0.00 | 0.00 | 35 | 1013.6 |
| 20260503014615 | 24 | 293 | 0.0 | 0.0 | 0.00 | 0.00 | 0.00 | 36 | 1013.5 |
| 20260503014113 | 23 | 293 | 0.0 | 0.0 | 0.00 | 0.00 | 0.00 | 34 | 1013.7 |
| 20260503013610 | 24 | 294 | 0.0 | 0.0 | 0.00 | 0.00 | 0.00 | 45 | 1013.7 |
| 20260503013108 | 23 | 293 | 0.0 | 0.0 | 0.00 | 0.00 | 0.00 | 33 | 1013.9 |
| 20260503012605 | 24 | 294 | 0.0 | 0.0 | 0.00 | 0.00 | 0.00 | 34 | 1013.7 |
| 20260503012101 | 24 | 293 | 0.0 | 0.0 | 0.00 | 0.00 | 0.00 | 34 | 1013.7 |
| 20260503011558 | 24 | 294 | 0.0 | 0.0 | 0.00 | 0.00 | 0.00 | 43 | 1014.0 |
| 20260503011055 | 25 | 270 | 4.8 | 6.4 | 0.00 | 0.00 | 0.00 | 38 | 1014.0 |
| 20260503010551 | 25 | 270 | 4.8 | 6.4 | 0.00 | 0.00 | 0.00 | 38 | 1013.9 |
| 20260503010049 | 25 | 270 | 4.8 | 6.4 | 0.00 | 0.00 | 0.00 | 38 | 1014.0 |
| 20260503005546 | 25 | 270 | 4.8 | 6.4 | 0.00 | 0.00 | 0.00 | 38 | 1014.0 |
| 20260503005043 | 25 | 270 | 4.8 | 6.4 | 0.00 | 0.00 | 0.00 | 38 | 1013.9 |
| 20260503004539 | 25 | 270 | 4.8 | 6.4 | 0.00 | 0.00 | 0.00 | 38 | 1014.0 |
| 20260503004038 | 25 | 270 | 4.8 | 6.4 | 0.00 | 0.00 | 0.00 | 38 | 1013.9 |
| 20260503003534 | 25 | 270 | 4.8 | 6.4 | 0.00 | 0.00 | 0.00 | 38 | 1013.9 |
| 20260503003031 | 25 | 270 | 4.8 | 6.4 | 0.00 | 0.00 | 0.00 | 38 | 1014.0 |
| 20260503002528 | 25 | 270 | 4.8 | 6.4 | 0.00 | 0.00 | 0.00 | 38 | 1014.1 |
| 20260503002025 | 25 | 270 | 4.8 | 6.4 | 0.00 | 0.00 | 0.00 | 38 | 1013.9 |
| 20260503001521 | 25 | 270 | 4.8 | 6.4 | 0.00 | 0.00 | 0.00 | 38 | 1013.9 |
| 20260503001019 | 25 | 270 | 4.8 | 9.7 | 0.00 | 0.00 | 0.00 | 40 | 1014.1 |
| 20260503000516 | 22 | 348 | 3.2 | 6.4 | 0.00 | 0.00 | 0.00 | 46 | 1013.9 |
| 20260503000013 | 22 | 349 | 4.8 | 6.4 | 0.00 | 0.00 | 0.00 | 49 | 1014.1 |
| 20260502235509 | 22 | 339 | 6.4 | 9.7 | 0.00 | 0.00 | 0.00 | 46 | 1014.2 |
| 20260502235007 | 22 | 331 | 1.6 | 3.2 | 0.00 | 0.00 | 0.00 | 43 | 1014.2 |
| 20260502234503 | 22 | 7 | 3.2 | 6.4 | 0.00 | 0.00 | 0.00 | 48 | 1014.1 |
| 20260502234001 | 23 | 343 | 6.4 | 9.7 | 0.00 | 0.00 | 0.00 | 45 | 1014.3 |
| 20260502233501 | 23 | 310 | 1.6 | 3.2 | 0.00 | 0.00 | 0.00 | 37 | 1014.4 |
| 20260502232958 | 23 | 336 | 1.6 | 3.2 | 0.00 | 0.00 | 0.00 | 45 | 1014.6 |
| 20260502232455 | 23 | 34 | 0.0 | 3.2 | 0.00 | 0.00 | 0.00 | 43 | 1014.5 |
| 20260502231951 | 23 | 0 | 3.2 | 4.8 | 0.00 | 0.00 | 0.00 | 43 | 1014.6 |
| 20260502231449 | 23 | 6 | 1.6 | 3.2 | 0.00 | 0.00 | 0.00 | 38 | 1014.6 |
| 20260502230947 | 23 | 324 | 0.0 | 3.2 | 0.00 | 0.00 | 0.00 | 44 | 1014.7 |